Simultaneous Nadir Overpasses (SNOs) Predictions

Prediction of SNOs between GOES-17 and METOP-C Satellite Orbit:

Table of predicted SNOs for the next 14.0 days since TLE Epoch: 12/1/2023
Index Date Time (GOES-17) GOES-17 Lat,Lon METOP-C Lat,Lon Distance(km) Time Diff (sec)
1 12/03/2023 04:41:03 -0.02,-104.65 -0.65,-107.46 320.85 80
2 12/04/2023 04:17:44 -0.02,-104.64 0.45,-102.46 248.27 80
3 12/05/2023 16:36:37 0.03,-104.66 0.53,-107.03 269.34 80
4 12/06/2023 16:18:38 0.03,-104.67 -0.59,-102.04 300.13 80
5 12/08/2023 04:37:36 -0.03,-104.65 -0.49,-106.62 224.91 80
6 12/09/2023 04:14:17 -0.03,-104.64 0.63,-101.62 344.19 80
7 12/10/2023 16:33:09 0.03,-104.66 0.39,-106.18 173.85 80
8 12/11/2023 16:15:09 0.02,-104.66 -0.74,-101.19 395.25 80
9 12/13/2023 04:34:09 -0.02,-104.64 -0.25,-105.78 130.12 80
10 12/14/2023 04:10:48 -0.03,-104.63 0.83,-100.78 438.72 80
11 12/15/2023 16:29:41 0.03,-104.64 0.17,-105.34 80.08 80
